Twin Falls, ID

7:38 AM MDT on May 24, 2017 (GMT -0600)
Joslin Field-Magic Valley Regional

Weather History for KTWF - April, 2014

Change the Weather History Date:

Sunday, April 6, 2014

  Actual Average Record
Temperature  
Mean Temperature 50 °F -  
Max Temperature 60 °F 58 °F 75 °F (1991)
Min Temperature 40 °F 34 °F 18 °F (1983)
Degree Days  
Heating Degree Days 15 19  
Month to date heating degree days 128 116  
Since 1 July heating degree days 4987 5405  
Cooling Degree Days 0 0  
Month to date cooling degree days 0 0  
Year to date cooling degree days 0 0  
Moisture  
Dew Point 33 °F    
Average Humidity 54    
Maximum Humidity 76    
Minimum Humidity 31    
Precipitation  
Precipitation T in 0.03 in 0.20 in (2006)
Month to date precipitation 0.03 0.18  
Year to date precipitation 4.16 3.01  
Sea Level Pressure  
Sea Level Pressure 30.09 in    
Wind  
Wind Speed 19 mph (WSW)    
Max Wind Speed 36 mph    
Max Gust Speed 46 mph    
Visibility 10 miles    
Events Rain    
T = Trace of Precipitation, MM = Missing Value Source: NWS Daily Summary

Daily Weather History Graph

Daily Weather History Graph

Search for Another Location

Airport or City:

Trip Planner

Search our weather history database for the weather conditions in past years. The results will help you decide how hot, cold, wet, or windy it might be!

Date:

Astronomy

Apr. 06, 2014 Rise Set
Actual Time 7:11 AM MDT 8:09 PM MDT
Civil Twilight 6:43 AM MDT 8:38 PM MDT
Nautical Twilight 6:08 AM MDT 9:12 PM MDT
Astronomical Twilight 5:33 AM MDT 9:48 PM MDT
Moon 12:12 PM MDT (4/6) 2:12 AM MDT (4/6)
Length of Visible Light 13h 55m
Length of Day
12h 58m
Waxing Crescent, 44% of the Moon is Illuminated
Apr 6
Waxing Crescent
Apr 7
First Quarter
Apr 15
Full
Apr 22
Last Quarter
Apr 29
New

Hourly Weather History & Observations

Time (MDT) Temp. Windchill Dew Point Humidity Pressure Visibility Wind Dir Wind Speed Gust Speed Precip Events Conditions
12:53 AM 42.1 °F 35.7 °F 30.0 °F 62% 30.04 in 10.0 mi SSW 11.5 mph - N/A   Clear
1:53 AM 41.0 °F 34.3 °F 30.0 °F 65% 30.03 in 10.0 mi South 11.5 mph - N/A   Clear
2:53 AM 41.0 °F 33.1 °F 30.0 °F 65% 30.04 in 10.0 mi SSW 15.0 mph - N/A   Mostly Cloudy
3:53 AM 41.0 °F 33.9 °F 30.0 °F 65% 30.04 in 10.0 mi SSW 12.7 mph - N/A   Overcast
4:53 AM 42.1 °F 35.7 °F 32.0 °F 67% 30.03 in 10.0 mi SSW 11.5 mph - N/A   Overcast
5:53 AM 43.0 °F 36.8 °F 35.1 °F 74% 30.04 in 10.0 mi WSW 11.5 mph - 0.00 in Rain Light Rain
6:43 AM 43.0 °F 37.7 °F 36.0 °F 76% 30.10 in 10.0 mi SSW 9.2 mph - 0.00 in   Overcast
6:53 AM 43.0 °F 36.8 °F 36.0 °F 76% 30.05 in 10.0 mi SW 11.5 mph - 0.00 in   Overcast
7:24 AM 43.0 °F 35.7 °F 36.0 °F 76% 30.11 in 10.0 mi SW 15.0 mph - N/A   Overcast
7:53 AM 44.1 °F 38.1 °F 36.0 °F 73% 30.07 in 10.0 mi WSW 11.5 mph - N/A   Overcast
8:32 AM 44.1 °F 37.1 °F 37.0 °F 76% 30.13 in 10.0 mi WSW 15.0 mph - N/A   Overcast
8:39 AM 45.0 °F 37.9 °F 37.0 °F 74% 30.13 in 10.0 mi WSW 16.1 mph - N/A   Overcast
8:53 AM 45.0 °F 37.6 °F 37.0 °F 74% 30.09 in 10.0 mi WSW 17.3 mph - N/A   Overcast
9:53 AM 46.9 °F - 37.0 °F 68% 30.10 in 10.0 mi WSW 20.7 mph - N/A   Overcast
10:53 AM 48.0 °F - 36.0 °F 63% 30.11 in 10.0 mi WSW 17.3 mph 26.5 mph N/A   Overcast
11:24 AM 51.1 °F - 36.0 °F 56% 30.15 in 10.0 mi West 23.0 mph - N/A   Overcast
11:53 AM 53.1 °F - 35.1 °F 50% 30.09 in 10.0 mi WSW 21.9 mph 31.1 mph N/A   Mostly Cloudy
12:53 PM 55.0 °F - 34.0 °F 45% 30.09 in 10.0 mi West 25.3 mph 35.7 mph N/A   Mostly Cloudy
1:53 PM 55.0 °F - 34.0 °F 45% 30.08 in 10.0 mi West 28.8 mph 35.7 mph N/A   Scattered Clouds
2:53 PM 59.0 °F - 33.1 °F 38% 30.06 in 10.0 mi West 28.8 mph 38.0 mph N/A   Mostly Cloudy
3:53 PM 57.0 °F - 32.0 °F 39% 30.06 in 10.0 mi West 32.2 mph 38.0 mph N/A   Scattered Clouds
4:53 PM 59.0 °F - 28.0 °F 31% 30.06 in 10.0 mi WNW 34.5 mph 43.7 mph N/A   Scattered Clouds
5:53 PM 57.9 °F - 32.0 °F 37% 30.07 in 10.0 mi West 32.2 mph 40.3 mph N/A   Partly Cloudy
6:53 PM 57.0 °F - 30.0 °F 36% 30.07 in 10.0 mi West 25.3 mph 33.4 mph N/A   Clear
7:53 PM 54.0 °F - 30.9 °F 41% 30.10 in 10.0 mi West 20.7 mph - N/A   Clear
8:53 PM 50.0 °F - 30.9 °F 48% 30.13 in 10.0 mi WSW 13.8 mph - N/A   Clear
9:53 PM 48.9 °F - 30.9 °F 50% 30.14 in 10.0 mi WSW 16.1 mph - N/A   Clear
10:53 PM 45.0 °F 38.9 °F 30.9 °F 58% 30.17 in 10.0 mi SSW 12.7 mph - N/A   Clear
11:53 PM 46.0 °F 38.8 °F 30.9 °F 56% 30.16 in 10.0 mi SW 18.4 mph - N/A   Clear